Weather History for Mackall AAF, NC

Change the Weather History Date:

Wednesday, December 18, 2013

  Actual Average Record
Temperature  
Mean Temperature 38 °F -  
Max Temperature 52 °F 53 °F 73 °F (2006)
Min Temperature 25 °F 34 °F 16 °F (2007)
Degree Days  
Heating Degree Days 26    
Moisture  
Dew Point 24 °F    
Average Humidity 65    
Maximum Humidity 99    
Minimum Humidity 25    
Precipitation  
Precipitation 0.00 in - - ()
Sea Level Pressure  
Sea Level Pressure 30.25 in    
Wind  
Wind Speed 6 mph (NW)    
Max Wind Speed 12 mph    
Max Gust Speed 16 mph    
Visibility 12 miles    
Events      
Averages and records for this station are not official NWS values.
T = Trace of Precipitation, MM = Missing Value Source: NWS Daily Summary

Daily Weather History Graph

Daily Weather History Graph

Search for Another Location

Airport:

Trip Planner

Search our weather history database for the weather conditions in past years. The results will help you decide how hot, cold, wet, or windy it might be!

Date:

Astronomy

Dec. 18, 2013 Rise Set
Actual Time 7:20 AM EST 5:08 PM EST
Civil Twilight 6:52 AM EST 5:37 PM EST
Nautical Twilight 6:20 AM EST 6:08 PM EST
Astronomical Twilight 5:49 AM EST 6:39 PM EST
Moon 6:36 PM EST (12/18) 8:02 AM EST (12/18)
Length of Visible Light 10h 44m
Length of Day
9h 48m
Full, 98% of the Moon is Illuminated
Dec 18
Full
Dec 25
Last Quarter
Jan 1
New
Jan 7
First Quarter
Jan 15
Full

Hourly Weather History & Observations

Time (EST) Temp. Windchill Dew Point Humidity Pressure Visibility Wind Dir Wind Speed Gust Speed Precip Events Conditions
12:56 AM 46.6 °F - 33.3 °F 60% 30.07 in 12.0 mi NNW 9.2 mph - N/A   Clear
1:56 AM 41.7 °F 38.0 °F 31.8 °F 68% 30.09 in 12.0 mi NW 5.8 mph - N/A   Clear
2:56 AM 35.6 °F 32.8 °F 30.9 °F 83% 30.12 in 12.0 mi NW 3.5 mph - N/A   Clear
3:56 AM 33.6 °F 28.4 °F 28.0 °F 80% 30.13 in 12.0 mi NNW 5.8 mph - N/A   Clear
4:56 AM 30.2 °F - 27.0 °F 88% 30.15 in 12.0 mi North 2.3 mph - N/A   Clear
5:56 AM 28.4 °F 24.6 °F 26.1 °F 91% 30.19 in 12.0 mi NNW 3.5 mph - N/A   Clear
6:56 AM 25.7 °F 21.5 °F 25.5 °F 99% 30.22 in 12.0 mi NW 3.5 mph - N/A   Clear
7:56 AM 28.6 °F - 27.5 °F 96% 30.25 in 12.0 mi WNW 2.3 mph - N/A   Clear
8:56 AM 38.7 °F 35.2 °F 26.2 °F 61% 30.28 in 12.0 mi North 4.6 mph - N/A   Clear
9:56 AM 43.0 °F 36.8 °F 19.6 °F 39% 30.29 in 12.0 mi North 11.5 mph 16.1 mph N/A   Clear
10:56 AM 46.0 °F 43.9 °F 19.2 °F 34% 30.30 in 12.0 mi North 4.6 mph - N/A   Clear
11:56 AM 47.8 °F - 17.6 °F 30% 30.28 in 12.0 mi WNW 8.1 mph - N/A   Clear
12:56 PM 50.5 °F - 17.4 °F 27% 30.26 in 12.0 mi NNW 8.1 mph - N/A   Clear
1:56 PM 52.0 °F - 17.1 °F 25% 30.25 in 12.0 mi West 6.9 mph - N/A   Clear
2:56 PM 51.3 °F - 18.3 °F 27% 30.26 in 12.0 mi WNW 10.4 mph - N/A   Clear
3:56 PM 51.1 °F - 18.1 °F 27% 30.27 in 12.0 mi WNW 8.1 mph - N/A   Clear
4:56 PM 47.8 °F - 19.2 °F 32% 30.28 in 12.0 mi WNW 4.6 mph - N/A   Clear
5:56 PM 38.5 °F - 26.4 °F 62% 30.29 in 12.0 mi South 2.3 mph - N/A   Clear
6:56 PM 33.8 °F - 28.2 °F 80% 30.31 in 12.0 mi SE 2.3 mph - N/A   Clear
7:56 PM 30.6 °F - 25.0 °F 80% 30.32 in 12.0 mi NW 1.2 mph - N/A   Clear
8:56 PM 30.2 °F - 26.2 °F 85% 30.31 in 12.0 mi SE 2.3 mph - N/A   Clear
9:56 PM 27.3 °F - 25.5 °F 93% 30.31 in 12.0 mi NNE 1.2 mph - N/A   Clear
10:56 PM 27.0 °F - 24.1 °F 89% 30.32 in 12.0 mi NW 1.2 mph - N/A   Clear
11:56 PM 26.2 °F - 24.3 °F 92% 30.33 in 12.0 mi South 1.2 mph - N/A   Clear